Briefing drone pour Varois-et-chaignot

Rechercher une autre localisation

Conditions de vol :


Nous sommes le : Lundi 28 septembre 2020
Il est 16:53 UTC (18:53 LT)

Lever de soleil : 05:08 UTC (07:08 LT)
Coucher de soleil : 17:51 UTC (19:51 LT)

Météo

L'essentiel des conditions de vol

VIGILANCE MÉTÉO FRANCE - Côte-dOr (21)
Pas de vigilances particulieres
METAR de LFSD
LFSD 281630Z AUTO 20005KT 9999 -RA FEW015 BKN033 BKN043 13/13 Q1013

Date d'émission: 28/09/2020
Heure d'émission: 16:30 UTC
Vent: 200° pour 5 KT (9 km/h)
Visibilité horizontale: > 10 km
Plafond :
- Peu de nuages à 1500ft (457m)
- Nuages morcelés à 3300ft (1006m)
- Nuages morcelés à 4300ft (1311m)
Température: 13 °C
Point de rosée: 13 °C
Humidité: 100%
Pression (QNH): 1013 hPa
Conditions: Faible pluie
TAF de LFSD
LFSD 010600Z 0100/0124 CNL

Conditions prévues :

Heure d'émission : Bulletin éffectué le 01 à 00:00 UTC
Prévision : Valide du 01 a 00:00 UTC au 01 a 23:59 UTC
Nuages : à 0ft (0 m)
WEBCAM POUR VAROIS-ET-CHAIGNOT

Réglementation

Voler en sécurité

CARTES AERONAUTIQUE 1/500.000
CARTES VAC (LFSD)
SUP AIP




Chargement des AIP...
NOTAM (VAROIS-ET-CHAIGNOT + Terrain à proximité / FIR )




Chargement des NOTAMS...
CONTACT PREFECTURE 21
Côte-dOr (21) : pref-drone@cote-dor.gouv.fr


Avertissement : Les données mises à disposition sont indicatives. Oxygène Drone ne pourra être tenu responsable de dégâts causés aux biens et aux personnes.